Weather in Blahovishchenka

Ukraine / Zaporizhia Region     47°16′28″N   36°46′23″E
temp.,
°C
wind,
m/s
gust,
m/s
humid.,
%
clouds,
%
prec.,
mm/h
press.,
hPa
HPBL,
m
2 march, tue
tue223:000nnw358116 0.0 1029109
02:00−1nnw34838 0.0 102993
05:00−1wnw23880 0.0 102873
08:00+1wnw46743 0.0 1028290
11:00+4w685717 0.0 1026986
14:00+4w7105936 0.0 1024942
17:00+3wsw71272100 0.0 1021733
20:00+2wsw7157784 0.0 1020609
3 march, wed
wed323:00+2w81388100 0.0 1018684
02:000wnw61297100 0.3 1018582
05:00+1nw81295100 0.2 1018827
08:00+1nnw7118092 0.3 1022862
11:00+2nnw796881 0.0 10231074
14:00+5nnw7105584 0.1 10241530
17:00+3nw486263 0.0 1024442
20:00+1nw367031 0.0 1026125
4 march, thu
thu423:000wnw34720 0.0 102677
02:000w34770 0.0 102692
05:00−1wsw37780 0.0 1024157
08:00+2wsw59670 0.0 1023466
11:00+6wsw710520 0.0 10211111
14:00+7sw811550 0.0 10191196
17:00+5sw712671 0.0 1017547
20:00+3sw6137712 0.0 1016390
5 march, fri
fri523:00+2sw7168272 0.0 1015464
02:00+1sw7159058 0.0 1015498
05:00+1sw6139214 0.0 1014438
08:00+3sw6118949 0.0 1015486
11:00+6sw6983100 0.0 1014569
14:00+8ssw71067100 0.0 1013637
17:00+6ssw61174100 0.0 1012441
20:00+4ssw61386100 0.0 1012326
6 march, sat
sat623:00+3ssw5129382 0.0 1012305
02:00+4wsw4109567 0.0 1012337
05:00+4wsw3697100 0.0 1012181
08:00+4nnw4795100 0.0 1013321
11:00+1n6895100 0.9 1014388
14:00+1n6994100 1.9 1015586
17:00+2n6961100 0.2 1016957
20:000nnw4965100 0.2 1019508